QTR93X LFPG-OTHH

Flight info

Callsign QTR93X
Flight time N/A
Altitude 35000
Route LANVI DCT BEGAR DCT TRA DCT SUXAN DCT ROTAR DCT VAKSU/N0482F370 DCT PINDO DCT PAXIS DCT OBRAN L321 REXUM M872 MEDRO/N0489F390 M872 BDB Y214 RAPMA DCT LADBO T142 LAEEB
Aircraft B77W/H-SDE1E2E3FGHIJ2J3J4J5M1RWXY/LB1D1

Departure

Time 2026-04-30 10:42
Airport Charles de Gaulle International Airport (LFPG)

Arrival

Time N/A
Airport Hamad International Airport (OTHH)
Time Latitude Longitude Altitude Speed Heading
2026-04-30 10:00 49.01287 2.54559 367 ft 0 kts 350°
2026-04-30 10:30 49.01286 2.54559 366 ft 1 kts 350°
2026-04-30 10:31 49.01271 2.54562 366 ft 2 kts
2026-04-30 10:31 49.01257 2.54559 366 ft 2 kts 16°
2026-04-30 10:31 49.01243 2.54551 365 ft 2 kts 27°
2026-04-30 10:31 49.01230 2.54539 365 ft 2 kts 39°
2026-04-30 10:32 49.01219 2.54523 364 ft 2 kts 51°
2026-04-30 10:32 49.01211 2.54505 364 ft 2 kts 63°
2026-04-30 10:32 49.01205 2.54484 364 ft 2 kts 75°
2026-04-30 10:32 49.01202 2.54461 364 ft 2 kts 87°
2026-04-30 10:33 49.01202 2.54439 364 ft 2 kts 87°
2026-04-30 10:33 49.01201 2.54428 364 ft 0 kts 86°
2026-04-30 10:34 49.01201 2.54430 364 ft 1 kts 86°
2026-04-30 10:34 49.01203 2.54481 363 ft 8 kts 86°
2026-04-30 10:35 49.01210 2.54635 364 ft 18 kts 86°
2026-04-30 10:35 49.01220 2.54826 363 ft 16 kts 85°
2026-04-30 10:35 49.01273 2.54955 364 ft 16 kts
2026-04-30 10:35 49.01383 2.54921 366 ft 17 kts 348°
2026-04-30 10:36 49.01517 2.54894 369 ft 21 kts 355°
2026-04-30 10:36 49.01666 2.54877 372 ft 21 kts 356°
2026-04-30 10:36 49.01817 2.54859 375 ft 21 kts 356°
2026-04-30 10:36 49.01924 2.54839 375 ft 10 kts 330°
2026-04-30 10:37 49.01936 2.54738 375 ft 14 kts 261°
2026-04-30 10:37 49.01918 2.54538 373 ft 21 kts 263°
2026-04-30 10:37 49.01910 2.54422 373 ft 0 kts 264°
2026-04-30 10:37 49.01906 2.54328 373 ft 12 kts 268°
2026-04-30 10:38 49.01901 2.54174 373 ft 19 kts 267°
2026-04-30 10:38 49.01893 2.53976 371 ft 17 kts 265°
2026-04-30 10:38 49.01881 2.53740 370 ft 27 kts 266°
2026-04-30 10:38 49.01860 2.53471 370 ft 24 kts 264°
2026-04-30 10:39 49.01849 2.53299 372 ft 18 kts 265°
2026-04-30 10:39 49.01837 2.53030 372 ft 31 kts 266°
2026-04-30 10:39 49.01826 2.52826 375 ft 6 kts 265°
2026-04-30 10:39 49.01820 2.52699 375 ft 19 kts 266°
2026-04-30 10:40 49.01807 2.52463 378 ft 19 kts 268°
2026-04-30 10:40 49.01885 2.52352 378 ft 13 kts 357°
2026-04-30 10:40 49.01981 2.52343 378 ft 13 kts 357°
2026-04-30 10:40 49.02075 2.52335 378 ft 13 kts
2026-04-30 10:41 49.02117 2.52395 378 ft 8 kts 75°
2026-04-30 10:41 49.02120 2.52446 378 ft 0 kts 86°
2026-04-30 10:41 49.02129 2.52594 379 ft 50 kts 85°
2026-04-30 10:41 49.02186 2.53598 379 ft 140 kts 85°
2026-04-30 10:42 49.02303 2.55370 689 ft 191 kts 86°
2026-04-30 10:42 49.02426 2.57398 1970 ft 196 kts 87°
2026-04-30 10:42 49.02514 2.59333 3003 ft 189 kts 88°
2026-04-30 10:42 49.02606 2.61417 3585 ft 206 kts 88°
2026-04-30 10:43 49.02719 2.63665 4175 ft 223 kts 88°
2026-04-30 10:43 49.02847 2.66095 4796 ft 240 kts 87°
2026-04-30 10:43 49.02983 2.68657 5570 ft 250 kts 87°
2026-04-30 10:43 49.03122 2.71292 6448 ft 256 kts 87°
2026-04-30 10:44 49.03258 2.74017 7347 ft 261 kts 87°
2026-04-30 10:44 49.03390 2.76747 8257 ft 264 kts 87°
2026-04-30 10:44 49.03525 2.79558 9097 ft 270 kts 87°
2026-04-30 10:44 49.03661 2.82383 9944 ft 274 kts 87°
2026-04-30 10:45 49.03801 2.85299 10725 ft 282 kts 87°
2026-04-30 10:45 49.03945 2.88347 11274 ft 298 kts 87°
2026-04-30 10:45 49.04097 2.91560 11845 ft 313 kts 87°
2026-04-30 10:45 49.04213 2.94947 12377 ft 329 kts 92°
2026-04-30 10:46 49.03920 2.98438 12955 ft 343 kts 103°
2026-04-30 10:46 49.03317 3.01990 13575 ft 356 kts 105°
2026-04-30 10:46 49.02668 3.05660 14351 ft 365 kts 105°
2026-04-30 10:46 49.02007 3.09384 15253 ft 369 kts 105°
2026-04-30 10:47 49.01338 3.13141 16149 ft 374 kts 105°
2026-04-30 10:47 49.00658 3.16956 17008 ft 378 kts 105°
2026-04-30 10:47 48.99963 3.20844 17865 ft 383 kts 105°
2026-04-30 10:47 48.99270 3.24716 18709 ft 387 kts 105°
2026-04-30 10:48 48.98564 3.28645 19613 ft 389 kts 105°
2026-04-30 10:48 48.97853 3.32601 20494 ft 391 kts 105°
2026-04-30 10:48 48.97136 3.36579 21328 ft 394 kts 104°
2026-04-30 10:48 48.96411 3.40591 22138 ft 397 kts 104°
2026-04-30 10:49 48.95675 3.44657 22931 ft 400 kts 104°
2026-04-30 10:49 48.94938 3.48723 23679 ft 403 kts 104°
2026-04-30 10:49 48.94197 3.52810 24433 ft 406 kts 103°
2026-04-30 10:49 48.93685 3.57055 25051 ft 411 kts 95°
2026-04-30 10:50 48.93441 3.61397 25641 ft 416 kts 94°
2026-04-30 10:50 48.93218 3.65774 26286 ft 421 kts 95°
2026-04-30 10:50 48.92988 3.70214 26974 ft 424 kts 95°
2026-04-30 10:50 48.92753 3.74678 27604 ft 428 kts 95°
2026-04-30 10:51 48.92512 3.79204 28212 ft 432 kts 95°
2026-04-30 10:51 48.92268 3.83739 28826 ft 435 kts 95°
2026-04-30 10:51 48.92021 3.88280 29407 ft 439 kts 95°
2026-04-30 10:51 48.91768 3.92882 30042 ft 441 kts 95°
2026-04-30 10:52 48.91508 3.97578 30193 ft 441 kts 95°
2026-04-30 10:52 48.91254 4.02133 30193 ft 438 kts 95°
2026-04-30 10:52 48.90735 4.11329 30196 ft 437 kts 95°
2026-04-30 10:53 48.89980 4.20466 30198 ft 438 kts 103°
2026-04-30 10:53 48.87739 4.29023 30199 ft 440 kts 116°
2026-04-30 10:54 48.84773 4.37203 30228 ft 446 kts 117°
2026-04-30 10:54 48.83266 4.41326 30613 ft 449 kts 117°
2026-04-30 10:54 48.81770 4.45411 31420 ft 443 kts 117°
2026-04-30 10:55 48.80288 4.49444 32202 ft 437 kts 117°
2026-04-30 10:55 48.78833 4.53400 32767 ft 434 kts 117°
2026-04-30 10:55 48.77359 4.57402 33177 ft 435 kts 117°
2026-04-30 10:55 48.75897 4.61364 33498 ft 436 kts 117°
2026-04-30 10:56 48.74408 4.65394 33821 ft 437 kts 117°
2026-04-30 10:56 48.72925 4.69397 34270 ft 436 kts 117°
2026-04-30 10:56 48.71452 4.73369 34701 ft 434 kts 117°
2026-04-30 10:56 48.69974 4.77348 35015 ft 433 kts 117°
2026-04-30 10:57 48.68510 4.81284 35167 ft 436 kts 117°
2026-04-30 10:57 48.67012 4.85306 35190 ft 440 kts 117°
2026-04-30 10:57 48.63992 4.93394 35195 ft 451 kts 117°
2026-04-30 10:58 48.60850 5.01783 35188 ft 466 kts 117°
2026-04-30 10:58 48.57622 5.10373 35183 ft 477 kts 117°
2026-04-30 10:59 48.54347 5.19054 35181 ft 477 kts 117°
2026-04-30 10:59 48.51077 5.27695 35176 ft 478 kts 117°
2026-04-30 11:00 48.47765 5.36421 35178 ft 480 kts 117°
2026-04-30 11:00 48.44456 5.45108 35179 ft 479 kts 117°
2026-04-30 11:01 48.41745 5.52208 35172 ft 479 kts 117°
2026-04-30 11:01 48.38435 5.60845 35170 ft 479 kts 117°
2026-04-30 11:02 48.35105 5.69512 35174 ft 479 kts 118°
2026-04-30 11:02 48.31803 5.78135 35168 ft 480 kts 115°
2026-04-30 11:03 48.29450 5.87424 35181 ft 479 kts 106°
2026-04-30 11:04 48.26372 6.01677 35188 ft 478 kts 106°
2026-04-30 11:04 48.24324 6.11062 35183 ft 477 kts 106°
2026-04-30 11:05 48.22248 6.20512 35186 ft 478 kts 106°
2026-04-30 11:05 48.20172 6.29917 35181 ft 478 kts 106°
2026-04-30 11:06 48.18066 6.39400 35182 ft 480 kts 106°
2026-04-30 11:06 48.15957 6.48860 35181 ft 480 kts 106°
2026-04-30 11:07 48.13839 6.58310 35186 ft 481 kts 106°
2026-04-30 11:07 48.11721 6.67713 35196 ft 481 kts 107°
2026-04-30 11:08 48.09585 6.77162 35211 ft 482 kts 107°
2026-04-30 11:08 48.07424 6.86673 35199 ft 484 kts 107°
2026-04-30 11:09 48.05254 6.96184 35206 ft 484 kts 107°
2026-04-30 11:09 48.03088 7.05632 35204 ft 484 kts 107°
2026-04-30 11:10 48.00904 7.15120 35217 ft 483 kts 106°
2026-04-30 11:10 47.98727 7.24534 35233 ft 482 kts 106°
2026-04-30 11:11 47.96537 7.33967 35220 ft 482 kts 106°
2026-04-30 11:11 47.94344 7.43365 35226 ft 481 kts 106°
2026-04-30 11:12 47.92158 7.52697 35219 ft 482 kts 106°
2026-04-30 11:12 47.89926 7.62058 35218 ft 482 kts 107°
2026-04-30 11:13 47.87551 7.71418 35221 ft 481 kts 108°
2026-04-30 11:13 47.85183 7.80722 35220 ft 485 kts 108°
2026-04-30 11:14 47.82803 7.90051 35221 ft 482 kts 108°
2026-04-30 11:14 47.80434 7.99309 35217 ft 481 kts 107°
2026-04-30 11:15 47.78053 8.08578 35211 ft 482 kts 108°
2026-04-30 11:15 47.75664 8.17846 35206 ft 482 kts 107°
2026-04-30 11:16 47.73261 8.27133 35211 ft 484 kts 107°
2026-04-30 11:16 47.70854 8.36396 35222 ft 484 kts 107°
2026-04-30 11:17 47.67931 8.45367 35214 ft 490 kts 120°
2026-04-30 11:17 47.63774 8.53415 35220 ft 494 kts 123°
2026-04-30 11:18 47.59505 8.61407 35221 ft 496 kts 123°
2026-04-30 11:18 47.53101 8.73347 35220 ft 496 kts 124°
2026-04-30 11:19 47.48814 8.81314 35218 ft 498 kts 124°
2026-04-30 11:19 47.44484 8.89336 35204 ft 500 kts 124°
2026-04-30 11:20 47.40173 8.97297 35208 ft 500 kts 124°
2026-04-30 11:20 47.35840 9.05277 35209 ft 500 kts 124°
2026-04-30 11:21 47.31477 9.13290 35225 ft 501 kts 124°
2026-04-30 11:21 47.27149 9.21214 35219 ft 501 kts 124°
2026-04-30 11:22 47.22778 9.29194 35231 ft 503 kts 124°
2026-04-30 11:22 47.18415 9.37136 35234 ft 503 kts 124°
2026-04-30 11:23 47.14013 9.45125 35228 ft 503 kts 124°
2026-04-30 11:24 47.07410 9.57066 35211 ft 504 kts 124°
2026-04-30 11:24 47.03005 9.65006 35232 ft 505 kts 124°
2026-04-30 11:25 46.96356 9.76944 35261 ft 508 kts 125°
2026-04-30 11:26 46.87426 9.92896 35243 ft 510 kts 125°
2026-04-30 11:26 46.82915 10.00917 35232 ft 511 kts 125°
2026-04-30 11:27 46.78422 10.08884 35221 ft 512 kts 125°
2026-04-30 11:27 46.73902 10.16877 35220 ft 512 kts 125°
2026-04-30 11:28 46.67115 10.28833 35229 ft 513 kts 125°
2026-04-30 11:29 46.62570 10.36813 35219 ft 514 kts 125°
2026-04-30 11:29 46.55722 10.48793 35206 ft 517 kts 124°
2026-04-30 11:30 46.49439 10.61435 35210 ft 514 kts 121°
2026-04-30 11:31 46.45296 10.69862 35209 ft 514 kts 121°
2026-04-30 11:31 46.41126 10.78279 35223 ft 517 kts 122°
2026-04-30 11:32 46.36937 10.86687 35230 ft 517 kts 122°
2026-04-30 11:32 46.32721 10.95112 35233 ft 520 kts 122°
2026-04-30 11:33 46.26381 11.07723 35239 ft 520 kts 122°
2026-04-30 11:33 46.22136 11.16130 35247 ft 521 kts 122°
2026-04-30 11:34 46.17869 11.24557 35250 ft 521 kts 122°
2026-04-30 11:34 46.13578 11.33002 35236 ft 522 kts 122°
2026-04-30 11:35 46.09312 11.41375 35218 ft 523 kts 122°
2026-04-30 11:35 46.04997 11.49818 35185 ft 524 kts 122°
2026-04-30 11:36 46.00679 11.58240 35194 ft 525 kts 122°
2026-04-30 11:36 45.96354 11.66653 35219 ft 528 kts 123°
2026-04-30 11:37 45.91997 11.75100 35245 ft 526 kts 123°
2026-04-30 11:37 45.87622 11.83558 35256 ft 529 kts 123°
2026-04-30 11:38 45.83255 11.91974 35275 ft 528 kts 123°
2026-04-30 11:38 45.78896 12.00351 35271 ft 529 kts 123°
2026-04-30 11:39 45.74480 12.08813 35271 ft 530 kts 123°
2026-04-30 11:39 45.70061 12.17253 35276 ft 532 kts 124°
2026-04-30 11:40 45.65642 12.25670 35278 ft 533 kts 124°
2026-04-30 11:40 45.61205 12.34095 35278 ft 534 kts 124°
2026-04-30 11:41 45.56735 12.42556 35279 ft 533 kts 124°
2026-04-30 11:41 45.52270 12.50985 35294 ft 535 kts 124°
2026-04-30 11:42 45.47809 12.59380 35280 ft 535 kts 124°
2026-04-30 11:42 45.43319 12.67807 35275 ft 536 kts 125°
2026-04-30 11:43 45.38788 12.76283 35277 ft 537 kts 125°
2026-04-30 11:43 45.34286 12.84680 35274 ft 538 kts 125°
2026-04-30 11:44 45.29762 12.93093 35281 ft 538 kts 125°
2026-04-30 11:44 45.25232 13.01500 35276 ft 538 kts 125°
2026-04-30 11:45 45.20734 13.09926 35284 ft 537 kts 125°
2026-04-30 11:45 45.16235 13.18334 35282 ft 539 kts 126°
2026-04-30 11:46 45.11725 13.26735 35277 ft 539 kts 126°
2026-04-30 11:46 45.07194 13.35147 35263 ft 541 kts 126°
2026-04-30 11:47 45.02607 13.43639 35264 ft 542 kts 126°
2026-04-30 11:47 44.98046 13.52056 35411 ft 542 kts 126°
2026-04-30 11:48 44.95760 13.56265 35156 ft 539 kts 126°
2026-04-30 11:48 44.93490 13.60438 35343 ft 542 kts 126°
2026-04-30 11:48 44.88894 13.68871 35262 ft 541 kts 127°
2026-04-30 11:49 44.84331 13.77218 35255 ft 542 kts 127°
2026-04-30 11:49 44.79725 13.85618 35255 ft 543 kts 127°
2026-04-30 11:50 44.75118 13.93997 35255 ft 543 kts 127°
2026-04-30 11:50 44.70511 14.02350 35249 ft 544 kts 127°
2026-04-30 11:51 44.65875 14.10732 35248 ft 545 kts 127°
2026-04-30 11:51 44.61217 14.19127 35251 ft 545 kts 127°
2026-04-30 11:52 44.56578 14.27466 35241 ft 547 kts 127°
2026-04-30 11:52 44.51913 14.35826 35245 ft 547 kts 127°
2026-04-30 11:53 44.47225 14.44203 35239 ft 547 kts 128°
2026-04-30 11:53 44.42528 14.52573 35237 ft 548 kts 128°
2026-04-30 11:54 44.37820 14.60937 35234 ft 548 kts 128°
2026-04-30 11:54 44.33115 14.69270 35231 ft 550 kts 128°
2026-04-30 11:55 44.28375 14.77643 35229 ft 550 kts 128°
2026-04-30 11:55 44.23649 14.85967 35235 ft 552 kts 128°
2026-04-30 11:56 44.18894 14.94318 35227 ft 553 kts 129°
2026-04-30 11:56 44.14104 15.02705 35226 ft 552 kts 129°
2026-04-30 11:57 44.09331 15.11038 35223 ft 555 kts 129°
2026-04-30 11:57 44.04549 15.19362 35225 ft 554 kts 129°
2026-04-30 11:58 43.99715 15.27754 35225 ft 555 kts 129°
2026-04-30 11:58 43.94927 15.36042 35229 ft 554 kts 129°
2026-04-30 11:59 43.90096 15.44381 35220 ft 554 kts 129°
2026-04-30 11:59 43.85261 15.52701 35198 ft 555 kts 129°
2026-04-30 12:00 43.80433 15.60986 35044 ft 556 kts 129°
2026-04-30 12:00 43.77994 15.65163 35329 ft 557 kts 130°
2026-04-30 12:00 43.75582 15.69287 35060 ft 559 kts 130°
2026-04-30 12:01 43.73128 15.73478 35173 ft 557 kts 130°
2026-04-30 12:01 43.70720 15.77583 35170 ft 560 kts 130°
2026-04-30 12:01 43.65834 15.85897 35183 ft 558 kts 130°
2026-04-30 12:02 43.60931 15.94215 35183 ft 559 kts 130°
2026-04-30 12:02 43.56031 16.02504 35171 ft 559 kts 130°
2026-04-30 12:03 43.48660 16.14929 35193 ft 560 kts 130°
2026-04-30 12:04 43.43704 16.23255 35192 ft 561 kts 130°
2026-04-30 12:04 43.38794 16.31479 35196 ft 561 kts 131°
2026-04-30 12:05 43.33841 16.39750 35186 ft 560 kts 131°
2026-04-30 12:05 43.28912 16.47959 35186 ft 562 kts 131°
2026-04-30 12:06 43.23967 16.56173 35201 ft 560 kts 131°
2026-04-30 12:06 43.18996 16.64406 35172 ft 560 kts 131°
2026-04-30 12:07 43.14047 16.72579 35156 ft 561 kts 132°
2026-04-30 12:07 43.09081 16.80758 35144 ft 558 kts 132°
2026-04-30 12:08 43.04136 16.88879 35143 ft 559 kts 132°
2026-04-30 12:08 42.99140 16.97062 35141 ft 560 kts 132°
2026-04-30 12:09 42.94147 17.05217 35135 ft 560 kts 132°
2026-04-30 12:09 42.89173 17.13316 35140 ft 560 kts 132°
2026-04-30 12:10 42.84151 17.21474 35126 ft 561 kts 132°
2026-04-30 12:10 42.79157 17.29562 35145 ft 560 kts 132°
2026-04-30 12:11 42.74145 17.37657 35119 ft 562 kts 133°
2026-04-30 12:11 42.69138 17.45724 35113 ft 562 kts 132°
2026-04-30 12:12 42.64079 17.53850 35140 ft 563 kts 132°
2026-04-30 12:12 42.59038 17.61925 35131 ft 561 kts 133°
2026-04-30 12:13 42.53995 17.69981 35118 ft 562 kts 134°
2026-04-30 12:13 42.48969 17.77990 35119 ft 561 kts 133°
2026-04-30 12:14 42.43898 17.86046 35114 ft 564 kts 134°
2026-04-30 12:14 42.38830 17.94076 35096 ft 563 kts 134°
2026-04-30 12:15 42.33740 18.02120 35117 ft 563 kts 134°
2026-04-30 12:15 42.28664 18.10119 35110 ft 564 kts 134°
2026-04-30 12:16 42.23581 18.18108 35088 ft 564 kts 133°
2026-04-30 12:16 42.18487 18.26092 35111 ft 565 kts 134°
2026-04-30 12:17 42.10796 18.38107 35125 ft 566 kts 134°
2026-04-30 12:17 42.05675 18.46080 35107 ft 566 kts 134°
2026-04-30 12:18 42.00548 18.54051 35109 ft 566 kts 133°
2026-04-30 12:18 41.95568 18.62235 35106 ft 567 kts 132°
2026-04-30 12:19 41.90617 18.70403 35090 ft 567 kts 133°
2026-04-30 12:19 41.85628 18.78596 35085 ft 566 kts 133°
2026-04-30 12:20 41.80664 18.86716 35096 ft 566 kts 133°
2026-04-30 12:20 41.75706 18.94800 35083 ft 563 kts 133°
2026-04-30 12:21 41.70703 19.02929 35084 ft 566 kts 133°
2026-04-30 12:21 41.65744 19.10967 35096 ft 564 kts 133°
2026-04-30 12:22 41.60764 19.19015 35088 ft 563 kts 133°
2026-04-30 12:22 41.55777 19.27051 35102 ft 564 kts 133°
2026-04-30 12:23 41.50785 19.35075 35106 ft 562 kts 133°
2026-04-30 12:23 41.45792 19.43077 35104 ft 563 kts 133°
2026-04-30 12:24 41.40826 19.51016 35108 ft 561 kts 132°
2026-04-30 12:24 41.35842 19.58963 35104 ft 561 kts 133°
2026-04-30 12:25 41.30882 19.66852 35087 ft 558 kts 133°
2026-04-30 12:25 41.25874 19.74795 35087 ft 559 kts 133°
2026-04-30 12:26 41.20905 19.82656 35080 ft 557 kts 133°
2026-04-30 12:26 41.15948 19.90477 35078 ft 557 kts 133°
2026-04-30 12:27 41.10947 19.98347 35068 ft 556 kts 133°
2026-04-30 12:27 41.05974 20.06154 35062 ft 556 kts 133°
2026-04-30 12:28 41.01003 20.13937 35047 ft 556 kts 133°
2026-04-30 12:28 40.96030 20.21702 35048 ft 556 kts 133°
2026-04-30 12:29 40.91040 20.29477 35048 ft 553 kts 133°
2026-04-30 12:29 40.86046 20.37236 35048 ft 555 kts 133°
2026-04-30 12:30 40.81103 20.44897 35053 ft 553 kts 133°
2026-04-30 12:30 40.76105 20.52623 35056 ft 553 kts 133°
2026-04-30 12:31 40.71102 20.60337 35057 ft 553 kts 133°
2026-04-30 12:31 40.66133 20.67981 35051 ft 551 kts 133°
2026-04-30 12:32 40.60785 20.75133 35052 ft 546 kts 143°
2026-04-30 12:32 40.55149 20.81426 35050 ft 545 kts 143°
2026-04-30 12:33 40.49382 20.87832 35052 ft 544 kts 143°
2026-04-30 12:33 40.43591 20.94250 35055 ft 543 kts 143°
2026-04-30 12:34 40.37851 21.00596 35055 ft 542 kts 143°
2026-04-30 12:34 40.32096 21.06945 35054 ft 542 kts 143°
2026-04-30 12:35 40.26307 21.13316 35058 ft 543 kts 143°
2026-04-30 12:35 40.20544 21.19644 35051 ft 542 kts 143°
2026-04-30 12:36 40.14811 21.25926 35051 ft 539 kts 143°
2026-04-30 12:36 40.09053 21.32220 35047 ft 539 kts 143°
2026-04-30 12:37 40.03298 21.38495 35043 ft 539 kts 142°
2026-04-30 12:37 39.97561 21.44738 35040 ft 539 kts 143°
2026-04-30 12:38 39.91840 21.50948 35038 ft 539 kts 142°
2026-04-30 12:38 39.86082 21.57185 35031 ft 540 kts 143°
2026-04-30 12:39 39.80342 21.63389 35029 ft 537 kts 142°
2026-04-30 12:39 39.74607 21.69574 35020 ft 537 kts 143°
2026-04-30 12:40 39.68850 21.75767 35016 ft 538 kts 143°
2026-04-30 12:40 39.63112 21.81926 35007 ft 537 kts 143°
2026-04-30 12:41 39.57352 21.88096 34991 ft 537 kts 143°
2026-04-30 12:41 39.51603 21.94240 34980 ft 537 kts 143°
2026-04-30 12:42 39.45875 22.00348 34972 ft 535 kts 143°
2026-04-30 12:42 39.40132 22.06460 34983 ft 536 kts 143°
2026-04-30 12:43 39.34409 22.12536 34986 ft 535 kts 143°
2026-04-30 12:43 39.28677 22.18608 34973 ft 533 kts 143°
2026-04-30 12:44 39.22953 22.24658 34981 ft 534 kts 143°
2026-04-30 12:44 39.17218 22.30707 34987 ft 532 kts 143°
2026-04-30 12:45 39.11488 22.36738 35001 ft 532 kts 143°
2026-04-30 12:45 39.05775 22.42738 35014 ft 532 kts 143°
2026-04-30 12:46 39.00037 22.48751 35027 ft 531 kts 143°
2026-04-30 12:46 38.94349 22.54699 35029 ft 532 kts 143°
2026-04-30 12:47 38.88617 22.60679 35032 ft 532 kts 143°
2026-04-30 12:47 38.82894 22.66638 35022 ft 532 kts 144°
2026-04-30 12:48 38.77137 22.72619 35004 ft 531 kts 144°
2026-04-30 12:48 38.71427 22.78540 34990 ft 531 kts 144°
2026-04-30 12:49 38.65671 22.84494 34982 ft 532 kts 144°
2026-04-30 12:49 38.59914 22.90438 34979 ft 532 kts 144°
2026-04-30 12:50 38.54180 22.96344 34975 ft 532 kts 144°
2026-04-30 12:50 38.48428 23.02257 34974 ft 533 kts 144°
2026-04-30 12:51 38.42648 23.08187 34980 ft 533 kts 144°
2026-04-30 12:51 38.36910 23.14060 34986 ft 533 kts 144°
2026-04-30 12:52 38.31146 23.19948 34993 ft 533 kts 144°
2026-04-30 12:52 38.25360 23.25846 34998 ft 534 kts 144°
2026-04-30 12:53 38.19584 23.31721 35007 ft 534 kts 144°
2026-04-30 12:53 38.13779 23.37614 35014 ft 535 kts 144°
2026-04-30 12:54 38.07970 23.43497 35020 ft 535 kts 144°
2026-04-30 12:54 38.02200 23.49330 35015 ft 535 kts 144°
2026-04-30 12:55 37.96381 23.55200 35009 ft 535 kts 144°
2026-04-30 12:55 37.90550 23.61069 35011 ft 535 kts 144°
2026-04-30 12:56 37.84739 23.66907 34996 ft 533 kts 145°
2026-04-30 12:56 37.78917 23.72744 34997 ft 534 kts 145°
2026-04-30 12:57 37.73123 23.78540 34994 ft 534 kts 145°
2026-04-30 12:57 37.67321 23.84333 34993 ft 534 kts 145°
2026-04-30 12:58 37.61483 23.90149 34993 ft 535 kts 145°
2026-04-30 12:58 37.55677 23.95922 34995 ft 535 kts 145°
2026-04-30 12:59 37.49835 24.01718 34992 ft 534 kts 145°
2026-04-30 12:59 37.44012 24.07484 34988 ft 534 kts 145°
2026-04-30 13:00 37.38179 24.13248 34992 ft 535 kts 145°
2026-04-30 13:00 37.32338 24.19008 34992 ft 534 kts 145°
2026-04-30 13:01 37.26498 24.24756 34995 ft 533 kts 145°
2026-04-30 13:01 37.20673 24.30477 34995 ft 533 kts 145°
2026-04-30 13:02 37.14855 24.36179 34993 ft 534 kts 145°
2026-04-30 13:02 37.08993 24.41914 34994 ft 535 kts 145°
2026-04-30 13:03 37.03119 24.47648 34995 ft 535 kts 145°
2026-04-30 13:03 36.97263 24.53355 34990 ft 534 kts 145°
2026-04-30 13:04 36.91431 24.59024 34994 ft 535 kts 145°
2026-04-30 13:04 36.85563 24.64718 34997 ft 535 kts 145°
2026-04-30 13:05 36.79686 24.70411 34988 ft 534 kts 146°
2026-04-30 13:06 36.70893 24.78904 34992 ft 537 kts 146°
2026-04-30 13:06 36.65008 24.84576 35004 ft 537 kts 146°
2026-04-30 13:07 36.59069 24.90288 35006 ft 537 kts 146°
2026-04-30 13:07 36.53178 24.95941 35005 ft 538 kts 146°
2026-04-30 13:08 36.47284 25.01588 35005 ft 538 kts 146°
2026-04-30 13:08 36.41399 25.07214 35014 ft 536 kts 146°
2026-04-30 13:09 36.35474 25.12868 35010 ft 537 kts 146°
2026-04-30 13:09 36.29556 25.18504 35006 ft 537 kts 146°
2026-04-30 13:10 36.23644 25.24122 35012 ft 538 kts 146°
2026-04-30 13:10 36.17733 25.29730 35010 ft 539 kts 146°
2026-04-30 13:11 36.11786 25.35359 35016 ft 538 kts 146°
2026-04-30 13:11 36.05824 25.40993 35018 ft 540 kts 146°
2026-04-30 13:12 35.99902 25.46578 35013 ft 537 kts 146°
2026-04-30 13:12 35.93951 25.52178 35004 ft 540 kts 146°
2026-04-30 13:13 35.84987 25.60595 35013 ft 541 kts 146°
2026-04-30 13:14 35.76026 25.68984 35002 ft 541 kts 147°
2026-04-30 13:14 35.67021 25.77389 34999 ft 542 kts 147°
2026-04-30 13:15 35.58000 25.85785 35010 ft 545 kts 147°
2026-04-30 13:16 35.51964 25.91390 35000 ft 543 kts 147°
2026-04-30 13:16 35.45918 25.96993 34991 ft 544 kts 147°
2026-04-30 13:17 35.36863 26.05363 35002 ft 546 kts 147°
2026-04-30 13:18 35.27735 26.13778 35023 ft 548 kts 147°
2026-04-30 13:18 35.18610 26.22164 35005 ft 551 kts 147°
2026-04-30 13:19 35.12523 26.27747 35015 ft 548 kts 147°
2026-04-30 13:19 35.06421 26.33331 35015 ft 549 kts 147°
2026-04-30 13:20 35.00310 26.38913 35011 ft 549 kts 147°
2026-04-30 13:20 34.94192 26.44491 35012 ft 551 kts 147°
2026-04-30 13:21 34.88035 26.50093 35014 ft 553 kts 147°
2026-04-30 13:22 34.78786 26.58489 35011 ft 552 kts 147°
2026-04-30 13:22 34.69556 26.66845 35006 ft 552 kts 148°
2026-04-30 13:23 34.60326 26.75177 35008 ft 552 kts 148°
2026-04-30 13:24 34.47961 26.86301 35005 ft 554 kts 148°
2026-04-30 13:25 34.35585 26.97393 35020 ft 555 kts 148°
2026-04-30 13:26 34.20030 27.11277 35023 ft 555 kts 148°
2026-04-30 13:28 34.04456 27.25110 35034 ft 559 kts 148°
2026-04-30 13:28 33.95026 27.33292 35038 ft 555 kts 153°
2026-04-30 13:29 33.81762 27.42833 35029 ft 555 kts 154°
2026-04-30 13:31 33.65159 27.54611 35035 ft 555 kts 154°
2026-04-30 13:32 33.48504 27.66356 35025 ft 557 kts 154°
2026-04-30 13:33 33.35171 27.75717 35025 ft 557 kts 154°
2026-04-30 13:34 33.25130 27.82744 35028 ft 557 kts 155°
2026-04-30 13:35 33.11755 27.92074 35101 ft 558 kts 155°
2026-04-30 13:36 32.98328 28.01407 35030 ft 559 kts 155°
2026-04-30 13:36 32.88259 28.08385 35146 ft 560 kts 154°
2026-04-30 13:37 32.84877 28.10725 35038 ft 559 kts 155°
2026-04-30 13:37 32.78195 28.15341 35027 ft 558 kts 155°
2026-04-30 13:38 32.68127 28.22280 35030 ft 559 kts 154°
2026-04-30 13:39 32.54693 28.31512 35031 ft 557 kts 154°
2026-04-30 13:40 32.44625 28.38408 35033 ft 557 kts 155°
2026-04-30 13:40 32.37926 28.42989 35037 ft 556 kts 155°
2026-04-30 13:41 32.31217 28.47566 35037 ft 557 kts 154°
2026-04-30 13:41 32.24521 28.52127 35038 ft 558 kts 154°
2026-04-30 13:42 32.17767 28.56720 35040 ft 557 kts 154°
2026-04-30 13:42 32.07727 28.63533 35042 ft 559 kts 154°
2026-04-30 13:43 32.01004 28.68086 35027 ft 557 kts 155°
2026-04-30 13:43 31.94262 28.72644 35028 ft 556 kts 155°
2026-04-30 13:44 31.87551 28.77172 35022 ft 558 kts 155°
2026-04-30 13:44 31.80841 28.81693 35024 ft 557 kts 155°
2026-04-30 13:45 31.70747 28.88479 35026 ft 557 kts 155°
2026-04-30 13:46 31.64039 28.92979 35027 ft 557 kts 155°
2026-04-30 13:46 31.57283 28.97503 35028 ft 557 kts 155°
2026-04-30 13:47 31.50564 29.01996 35029 ft 557 kts 155°
2026-04-30 13:47 31.43972 29.06396 35029 ft 556 kts 155°
2026-04-30 13:48 31.37236 29.10885 35030 ft 556 kts 155°
2026-04-30 13:48 31.30503 29.15364 35034 ft 556 kts 155°
2026-04-30 13:49 31.23764 29.19839 35231 ft 559 kts 155°
2026-04-30 13:49 31.20376 29.22087 35617 ft 557 kts 155°
2026-04-30 13:49 31.17025 29.24310 36082 ft 553 kts 155°
2026-04-30 13:49 31.13715 29.26503 36515 ft 550 kts 155°
2026-04-30 13:50 31.10410 29.28690 36836 ft 550 kts 155°
2026-04-30 13:50 31.03715 29.33111 37034 ft 554 kts 155°
2026-04-30 13:50 31.00337 29.35342 37031 ft 553 kts 155°
2026-04-30 13:51 30.93665 29.39741 37024 ft 554 kts 155°
2026-04-30 13:51 30.86952 29.44159 37020 ft 554 kts 155°
2026-04-30 13:52 30.80277 29.48546 37016 ft 553 kts 155°
2026-04-30 13:52 30.73561 29.52952 37026 ft 555 kts 155°
2026-04-30 13:53 30.66876 29.57332 37021 ft 553 kts 155°
2026-04-30 13:53 30.60167 29.61719 37025 ft 554 kts 155°
2026-04-30 13:54 30.53469 29.66093 37008 ft 552 kts 156°
2026-04-30 13:54 30.46767 29.70462 37013 ft 554 kts 156°
2026-04-30 13:55 30.40097 29.74804 37002 ft 552 kts 156°
2026-04-30 13:55 30.33401 29.79155 36999 ft 550 kts 156°
2026-04-30 13:56 30.26729 29.83484 36990 ft 551 kts 156°
2026-04-30 13:56 30.20034 29.87820 36996 ft 552 kts 156°
2026-04-30 13:57 30.13348 29.92144 36994 ft 554 kts 156°
2026-04-30 13:57 30.06647 29.96472 36997 ft 552 kts 156°
2026-04-30 13:58 29.96583 30.02959 36994 ft 551 kts 156°
2026-04-30 13:59 29.89895 30.07260 36999 ft 553 kts 156°
2026-04-30 13:59 29.83178 30.11574 36994 ft 553 kts 156°
2026-04-30 14:00 29.76453 30.15886 36995 ft 553 kts 156°
2026-04-30 14:00 29.66393 30.22324 36997 ft 554 kts 156°
2026-04-30 14:01 29.59652 30.26631 36997 ft 553 kts 156°
2026-04-30 14:01 29.52950 30.30905 36994 ft 554 kts 156°
2026-04-30 14:02 29.46171 30.35222 36990 ft 554 kts 156°
2026-04-30 14:02 29.39597 30.39880 36979 ft 561 kts 146°
2026-04-30 14:03 29.34001 30.46180 36975 ft 569 kts 135°
2026-04-30 14:03 29.28661 30.52892 36965 ft 569 kts 135°
2026-04-30 14:04 29.23311 30.59569 36962 ft 568 kts 135°
2026-04-30 14:04 29.17947 30.66225 36957 ft 568 kts 136°
2026-04-30 14:05 29.12580 30.72858 36950 ft 567 kts 136°
2026-04-30 14:05 29.07222 30.79460 36958 ft 569 kts 136°
2026-04-30 14:06 28.99196 30.89320 36955 ft 566 kts 136°
2026-04-30 14:07 28.91107 30.99227 36955 ft 566 kts 136°
2026-04-30 14:08 28.83047 31.09073 36966 ft 568 kts 136°
2026-04-30 14:08 28.74967 31.18918 36972 ft 568 kts 136°
2026-04-30 14:09 28.69582 31.25466 36973 ft 567 kts 136°
2026-04-30 14:10 28.61523 31.35245 36986 ft 568 kts 137°
2026-04-30 14:10 28.56105 31.41806 36856 ft 567 kts 136°
2026-04-30 14:10 28.53431 31.45041 36993 ft 568 kts 137°
2026-04-30 14:11 28.50733 31.48300 36996 ft 568 kts 136°
2026-04-30 14:11 28.45315 31.54841 37001 ft 568 kts 137°
2026-04-30 14:12 28.39921 31.61342 37002 ft 566 kts 137°
2026-04-30 14:12 28.34499 31.67866 36979 ft 567 kts 137°
2026-04-30 14:13 28.29110 31.74340 36990 ft 566 kts 137°
2026-04-30 14:13 28.23690 31.80841 36993 ft 567 kts 138°
2026-04-30 14:14 28.18276 31.87325 36998 ft 566 kts 138°
2026-04-30 14:14 28.12855 31.93806 37007 ft 567 kts 137°
2026-04-30 14:15 28.07464 32.00243 37010 ft 567 kts 138°
2026-04-30 14:15 28.04764 32.03552 37165 ft 570 kts 134°
2026-04-30 14:15 28.02423 32.07131 37009 ft 574 kts 125°
2026-04-30 14:16 27.98518 32.15031 37028 ft 578 kts 121°
2026-04-30 14:16 27.94685 32.23046 37032 ft 576 kts 121°
2026-04-30 14:17 27.90871 32.30983 37033 ft 579 kts 121°
2026-04-30 14:17 27.87030 32.38943 37023 ft 577 kts 122°
2026-04-30 14:18 27.83196 32.46869 37013 ft 578 kts 122°
2026-04-30 14:18 27.77409 32.58789 37005 ft 578 kts 122°
2026-04-30 14:19 27.71623 32.70671 36985 ft 578 kts 122°
2026-04-30 14:20 27.67740 32.78624 36983 ft 578 kts 122°
2026-04-30 14:20 27.61908 32.90541 36979 ft 578 kts 122°
2026-04-30 14:21 27.58018 32.98471 36992 ft 579 kts 122°
2026-04-30 14:22 27.52184 33.10335 36978 ft 579 kts 123°
2026-04-30 14:22 27.46340 33.22186 36956 ft 579 kts 123°
2026-04-30 14:23 27.38490 33.38055 36943 ft 580 kts 123°
2026-04-30 14:24 27.32595 33.49930 36933 ft 581 kts 123°
2026-04-30 14:25 27.24717 33.65745 36898 ft 584 kts 123°
2026-04-30 14:26 27.18771 33.77652 36886 ft 583 kts 122°
2026-04-30 14:27 27.13993 33.90224 36733 ft 588 kts 114°
2026-04-30 14:27 27.12487 33.94475 36868 ft 589 kts 115°
2026-04-30 14:27 27.10956 33.98789 36861 ft 591 kts 115°
2026-04-30 14:28 27.07944 34.07256 36982 ft 589 kts 115°
2026-04-30 14:28 27.06409 34.11556 36867 ft 591 kts 115°
2026-04-30 14:28 27.03362 34.20084 36867 ft 590 kts 115°
2026-04-30 14:29 26.97778 34.35651 36867 ft 591 kts 115°
2026-04-30 14:31 26.89607 34.58309 36868 ft 590 kts 115°
2026-04-30 14:31 26.84974 34.71099 36847 ft 589 kts 115°
2026-04-30 14:32 26.80357 34.83801 36844 ft 591 kts 115°
2026-04-30 14:33 26.77261 34.92296 36849 ft 590 kts 116°
2026-04-30 14:33 26.72637 35.04946 36845 ft 591 kts 116°
2026-04-30 14:34 26.69517 35.13462 36848 ft 589 kts 116°
2026-04-30 14:34 26.66424 35.21883 36848 ft 589 kts 116°
2026-04-30 14:35 26.61753 35.34567 36848 ft 593 kts 116°
2026-04-30 14:36 26.58626 35.43036 36858 ft 593 kts 115°
2026-04-30 14:36 26.55476 35.51508 36864 ft 591 kts 116°
2026-04-30 14:37 26.52266 35.59913 36872 ft 591 kts 117°
2026-04-30 14:37 26.49044 35.68326 36853 ft 590 kts 117°
2026-04-30 14:38 26.45800 35.76786 36845 ft 592 kts 117°
2026-04-30 14:38 26.42583 35.85166 36850 ft 589 kts 117°
2026-04-30 14:39 26.39346 35.93578 36848 ft 592 kts 117°
2026-04-30 14:39 26.36113 36.01964 36857 ft 592 kts 117°
2026-04-30 14:40 26.31235 36.14585 36869 ft 593 kts 117°
2026-04-30 14:40 26.27982 36.22982 36862 ft 592 kts 117°
2026-04-30 14:41 26.24710 36.31411 36866 ft 593 kts 117°
2026-04-30 14:41 26.21456 36.39775 36870 ft 593 kts 117°
2026-04-30 14:42 26.18174 36.48141 36875 ft 591 kts 120°
2026-04-30 14:42 26.14336 36.56163 36883 ft 587 kts 123°
2026-04-30 14:43 26.10408 36.64124 36886 ft 585 kts 124°
2026-04-30 14:43 26.06498 36.72037 36856 ft 587 kts 124°
2026-04-30 14:44 26.02583 36.79956 36862 ft 585 kts 124°
2026-04-30 14:44 25.98659 36.87876 36861 ft 586 kts 124°
2026-04-30 14:45 25.94732 36.95790 36852 ft 584 kts 124°
2026-04-30 14:45 25.90828 37.03643 36857 ft 585 kts 124°
2026-04-30 14:46 25.86888 37.11558 36869 ft 586 kts 124°
2026-04-30 14:46 25.83595 37.18163 36872 ft 585 kts 124°
2026-04-30 14:47 25.79022 37.27326 36881 ft 583 kts 124°
2026-04-30 14:47 25.75105 37.35202 36897 ft 584 kts 124°
2026-04-30 14:48 25.71207 37.43027 36902 ft 580 kts 124°
2026-04-30 14:48 25.67271 37.50911 36911 ft 583 kts 124°
2026-04-30 14:49 25.63376 37.58702 36929 ft 580 kts 124°
2026-04-30 14:49 25.59454 37.66528 36920 ft 582 kts 124°
2026-04-30 14:50 25.53570 37.78251 36927 ft 579 kts 124°
2026-04-30 14:51 25.47702 37.89911 36934 ft 578 kts 125°
2026-04-30 14:52 25.41835 38.01535 36950 ft 581 kts 124°
2026-04-30 14:52 25.35928 38.13213 36945 ft 578 kts 124°
2026-04-30 14:53 25.30046 38.24810 36940 ft 578 kts 124°
2026-04-30 14:54 25.22176 38.40281 36939 ft 579 kts 124°
2026-04-30 14:55 25.16268 38.51862 36949 ft 579 kts 124°
2026-04-30 14:56 25.08363 38.67290 36982 ft 577 kts 125°
2026-04-30 14:57 25.02430 38.78834 37013 ft 576 kts 125°
2026-04-30 14:58 24.94525 38.94168 36964 ft 578 kts 125°
2026-04-30 14:58 24.88591 39.05636 36934 ft 575 kts 125°
2026-04-30 15:00 24.78708 39.24672 36948 ft 572 kts 125°
2026-04-30 15:01 24.70837 39.39786 37014 ft 571 kts 125°
2026-04-30 15:01 24.64931 39.51094 37029 ft 570 kts 125°
2026-04-30 15:02 24.61001 39.58602 37018 ft 568 kts 125°
2026-04-30 15:03 24.55572 39.70155 36978 ft 575 kts 113°
2026-04-30 15:03 24.53926 39.78780 36987 ft 585 kts 99°
2026-04-30 15:04 24.51813 40.00919 37014 ft 584 kts 98°
2026-04-30 15:06 24.49667 40.22971 37037 ft 583 kts 98°
2026-04-30 15:07 24.47922 40.40597 37040 ft 582 kts 98°
2026-04-30 15:08 24.46161 40.58152 37038 ft 580 kts 98°
2026-04-30 15:09 24.43725 40.80030 37027 ft 578 kts 100°
2026-04-30 15:10 24.41715 40.97456 37037 ft 580 kts 99°
2026-04-30 15:11 24.38658 41.23697 37028 ft 579 kts 99°
2026-04-30 15:13 24.36088 41.45471 37050 ft 576 kts 100°
2026-04-30 15:14 24.32453 41.75811 37042 ft 575 kts 100°
2026-04-30 15:17 24.27706 42.14672 37056 ft 573 kts 100°
2026-04-30 15:19 24.22962 42.52699 37068 ft 572 kts 101°